• In Russia
  • List of Countries
  • For 7 days
  • Water Temperature
  • Weather Map
  • Weather Widgets
  • user-avatar
    Login

    Hourly Weather Whitehorse

    Today, 5 June, Friday

    Time Temperature Precipitation Wind Pressure Humidity
    00:00 +6°C° 0 mm 1 mps 685 mmHg 56%
    01:00 +6°C° 0 mm 1 mps 685 mmHg 57%
    02:00 +5°C° 0 mm 1 mps 685 mmHg 59%
    03:00 +5°C° 0 mm 1 mps 685 mmHg 61%
    04:00 +6°C° 0 mm 0 mps 685 mmHg 56%
    05:00 +7°C° 0 mm 0 mps 685 mmHg 51%
    06:00 +9°C° 0 mm 0 mps 685 mmHg 46%
    07:00 +11°C° 0 mm 0 mps 685 mmHg 41%
    08:00 +12°C° 0 mm 0 mps 685 mmHg 36%
    09:00 +15°C° 0 mm 1 mps 685 mmHg 31%
    10:00 +16°C° 0 mm 1 mps 685 mmHg 29%
    11:00 +16°C° 0 mm 0 mps 685 mmHg 26%
    12:00 +17°C° 0 mm 0 mps 684 mmHg 24%
    13:00 +17°C° 0 mm 0 mps 684 mmHg 24%
    14:00 +18°C° 0 mm 0 mps 684 mmHg 23%
    15:00 +18°C° 0 mm 0 mps 684 mmHg 23%
    16:00 +19°C° 0 mm 1 mps 684 mmHg 23%
    17:00 +18°C° 0 mm 1 mps 683 mmHg 24%
    18:00 +18°C° 0 mm 1 mps 683 mmHg 24%
    19:00 +15°C° 0 mm 1 mps 683 mmHg 29%
    20:00 +13°C° 0 mm 1 mps 683 mmHg 34%
    21:00 +12°C° 0 mm 1 mps 682 mmHg 39%
    22:00 +11°C° 0 mm 1 mps 683 mmHg 47%
    23:00 +10°C° 0 mm 1 mps 683 mmHg 54%

    Tomorrow, 6 June, Saturday

    Time Temperature Precipitation Wind Pressure Humidity
    00:00 +9°C° 0 mm 1 mps 683 mmHg 61%
    01:00 +9°C° 0 mm 1 mps 683 mmHg 63%
    02:00 +8°C° 0 mm 1 mps 683 mmHg 65%
    03:00 +8°C° 0 mm 1 mps 683 mmHg 67%
    04:00 +9°C° 0 mm 1 mps 683 mmHg 63%
    05:00 +10°C° 0 mm 1 mps 683 mmHg 59%
    06:00 +10°C° 0 mm 2 mps 683 mmHg 55%
    07:00 +12°C° 0.1 mm 2 mps 683 mmHg 52%
    08:00 +14°C° 0.1 mm 2 mps 683 mmHg 49%
    09:00 +14°C° 0.1 mm 3 mps 683 mmHg 46%
    10:00 +16°C° 0.4 mm 3 mps 683 mmHg 45%
    11:00 +16°C° 0.4 mm 3 mps 683 mmHg 45%
    12:00 +17°C° 0.4 mm 3 mps 682 mmHg 45%
    13:00 +17°C° 0.3 mm 3 mps 682 mmHg 45%
    14:00 +17°C° 0.3 mm 3 mps 682 mmHg 45%
    15:00 +17°C° 0.3 mm 3 mps 682 mmHg 44%
    16:00 +17°C° 0.1 mm 2 mps 682 mmHg 44%
    17:00 +17°C° 0.1 mm 2 mps 682 mmHg 44%
    18:00 +17°C° 0.1 mm 2 mps 682 mmHg 44%
    19:00 +15°C° 0.4 mm 2 mps 681 mmHg 52%
    20:00 +14°C° 0.4 mm 2 mps 681 mmHg 59%
    21:00 +12°C° 0.4 mm 2 mps 681 mmHg 67%
    22:00 +12°C° 0.2 mm 2 mps 681 mmHg 73%
    23:00 +10°C° 0.2 mm 2 mps 681 mmHg 79%

    Day after tomorrow, 7 June, Sunday

    Time Temperature Precipitation Wind Pressure Humidity
    00:00 +9°C° 0.2 mm 2 mps 681 mmHg 85%
    01:00 +9°C° 0.3 mm 2 mps 681 mmHg 87%
    02:00 +10°C° 0.3 mm 1 mps 681 mmHg 89%
    03:00 +10°C° 0.3 mm 1 mps 682 mmHg 91%
    04:00 +10°C° 0.2 mm 1 mps 681 mmHg 89%
    05:00 +10°C° 0.2 mm 1 mps 681 mmHg 88%
    06:00 +11°C° 0.2 mm 1 mps 681 mmHg 87%
    07:00 +12°C° 0.1 mm 2 mps 681 mmHg 79%
    08:00 +12°C° 0.1 mm 3 mps 682 mmHg 72%
    09:00 +13°C° 0.1 mm 3 mps 682 mmHg 65%
    10:00 +13°C° 0.4 mm 4 mps 682 mmHg 62%
    11:00 +14°C° 0.4 mm 4 mps 682 mmHg 59%
    12:00 +14°C° 0.4 mm 5 mps 683 mmHg 56%
    13:00 +14°C° 0.4 mm 5 mps 683 mmHg 58%
    14:00 +14°C° 0.4 mm 4 mps 683 mmHg 61%
    15:00 +13°C° 0.4 mm 4 mps 683 mmHg 63%
    16:00 +12°C° 0.2 mm 4 mps 683 mmHg 68%
    17:00 +11°C° 0.2 mm 4 mps 683 mmHg 73%
    18:00 +8°C° 0.2 mm 4 mps 683 mmHg 77%
    19:00 +9°C° 0 mm 3 mps 683 mmHg 79%
    20:00 +8°C° 0 mm 3 mps 683 mmHg 81%
    21:00 +7°C° 0 mm 3 mps 683 mmHg 83%
    22:00 +6°C° 0 mm 2 mps 684 mmHg 85%
    23:00 +5°C° 0 mm 2 mps 684 mmHg 87%

    8 June, Monday

    Time Temperature Precipitation Wind Pressure Humidity
    00:00 +5°C° 0 mm 2 mps 684 mmHg 89%
    01:00 +4°C° 0 mm 2 mps 684 mmHg 90%
    02:00 +4°C° 0 mm 2 mps 684 mmHg 90%
    03:00 +3°C° 0 mm 2 mps 684 mmHg 91%
    04:00 +4°C° 0 mm 2 mps 685 mmHg 84%
    05:00 +5°C° 0 mm 2 mps 685 mmHg 77%
    06:00 +6°C° 0 mm 2 mps 685 mmHg 70%
    07:00 +8°C° 0 mm 2 mps 685 mmHg 64%
    08:00 +9°C° 0 mm 2 mps 685 mmHg 58%
    09:00 +10°C° 0 mm 2 mps 685 mmHg 53%
    10:00 +12°C° 0 mm 2 mps 685 mmHg 48%
    11:00 +13°C° 0 mm 2 mps 685 mmHg 44%
    12:00 +14°C° 0 mm 2 mps 685 mmHg 40%
    13:00 +14°C° 0 mm 2 mps 685 mmHg 40%
    14:00 +14°C° 0 mm 2 mps 685 mmHg 41%
    15:00 +13°C° 0 mm 3 mps 685 mmHg 41%
    16:00 +13°C° 0 mm 3 mps 685 mmHg 42%
    17:00 +13°C° 0 mm 3 mps 685 mmHg 42%
    18:00 +13°C° 0 mm 3 mps 685 mmHg 43%
    19:00 +11°C° 0 mm 3 mps 684 mmHg 49%
    20:00 +9°C° 0 mm 2 mps 684 mmHg 54%
    21:00 +8°C° 0 mm 2 mps 684 mmHg 60%
    22:00 +7°C° 0 mm 2 mps 685 mmHg 66%
    23:00 +6°C° 0 mm 2 mps 685 mmHg 71%

    9 June, Tuesday

    Time Temperature Precipitation Wind Pressure Humidity
    00:00 +4°C° 0 mm 2 mps 685 mmHg 77%
    01:00 +4°C° 0 mm 2 mps 685 mmHg 80%
    02:00 +3°C° 0 mm 2 mps 685 mmHg 84%
    03:00 +3°C° 0 mm 2 mps 685 mmHg 87%
    04:00 +4°C° 0 mm 2 mps 685 mmHg 79%
    05:00 +6°C° 0 mm 2 mps 685 mmHg 71%
    06:00 +7°C° 0 mm 2 mps 685 mmHg 62%
    07:00 +9°C° 0 mm 2 mps 685 mmHg 55%
    08:00 +10°C° 0 mm 3 mps 685 mmHg 48%
    09:00 +11°C° 0 mm 3 mps 685 mmHg 41%
    10:00 +12°C° 0 mm 3 mps 685 mmHg 37%
    11:00 +13°C° 0 mm 3 mps 685 mmHg 34%
    12:00 +14°C° 0 mm 3 mps 685 mmHg 30%
    13:00 +14°C° 0 mm 4 mps 685 mmHg 29%
    14:00 +15°C° 0 mm 4 mps 684 mmHg 28%
    15:00 +15°C° 0 mm 4 mps 684 mmHg 26%
    16:00 +16°C° 0 mm 3 mps 684 mmHg 27%
    17:00 +14°C° 0 mm 3 mps 684 mmHg 28%
    18:00 +14°C° 0 mm 3 mps 684 mmHg 29%
    19:00 +12°C° 0 mm 3 mps 684 mmHg 36%
    20:00 +10°C° 0 mm 2 mps 684 mmHg 43%
    21:00 +9°C° 0 mm 2 mps 684 mmHg 50%
    22:00 +7°C° 0 mm 2 mps 684 mmHg 55%
    23:00 +6°C° 0 mm 2 mps 685 mmHg 60%

    10 June, Wednesday

    Time Temperature Precipitation Wind Pressure Humidity
    00:00 +5°C° 0 mm 2 mps 685 mmHg 65%
    01:00 +6°C° 0 mm 1 mps 685 mmHg 68%
    02:00 +5°C° 0 mm 1 mps 686 mmHg 71%
    03:00 +5°C° 0 mm 1 mps 686 mmHg 73%
    04:00 +6°C° 0 mm 1 mps 687 mmHg 66%
    05:00 +8°C° 0 mm 1 mps 687 mmHg 58%
    06:00 +10°C° 0 mm 1 mps 687 mmHg 50%
    07:00 +12°C° 0 mm 1 mps 688 mmHg 44%
    08:00 +13°C° 0 mm 1 mps 688 mmHg 37%
    09:00 +15°C° 0 mm 1 mps 688 mmHg 31%
    10:00 +16°C° 0 mm 1 mps 688 mmHg 28%
    11:00 +16°C° 0 mm 1 mps 689 mmHg 25%
    12:00 +18°C° 0 mm 1 mps 689 mmHg 23%
    13:00 +19°C° 0 mm 1 mps 689 mmHg 22%
    14:00 +19°C° 0 mm 1 mps 689 mmHg 21%
    15:00 +19°C° 0 mm 1 mps 689 mmHg 20%
    16:00 +18°C° 0 mm 2 mps 689 mmHg 21%
    17:00 +18°C° 0 mm 2 mps 689 mmHg 22%
    18:00 +17°C° 0 mm 2 mps 689 mmHg 23%
    19:00 +16°C° 0 mm 2 mps 689 mmHg 29%
    20:00 +14°C° 0 mm 2 mps 689 mmHg 34%
    21:00 +12°C° 0 mm 2 mps 689 mmHg 40%
    22:00 +10°C° 0 mm 2 mps 689 mmHg 43%
    23:00 +10°C° 0 mm 1 mps 689 mmHg 47%
    Show more